TimeEDT,TemperatureF,Dew PointF,Humidity,Sea Level PressureIn,VisibilityMPH,Wind Direction,Wind SpeedMPH,Gust SpeedMPH,PrecipitationIn,Events,Conditions,WindDirDegrees,DateUTC
12:51 AM,75.0,70.0,84,30.19,10.0,East,3.5,-,N/A,,Clear,80,2013-08-21 04:51:00
1:51 AM,75.0,70.0,84,30.18,10.0,East,3.5,-,N/A,,Clear,80,2013-08-21 05:51:00
2:51 AM,75.9,70.0,82,30.19,10.0,NE,4.6,-,N/A,,Clear,50,2013-08-21 06:51:00
3:51 AM,75.9,71.1,85,30.17,10.0,ENE,4.6,-,N/A,,Clear,70,2013-08-21 07:51:00
4:51 AM,75.9,71.1,85,30.17,10.0,Calm,Calm,-,N/A,,Clear,0,2013-08-21 08:51:00
5:51 AM,75.9,71.1,85,30.18,10.0,ENE,4.6,-,N/A,,Clear,60,2013-08-21 09:51:00
6:51 AM,75.9,71.1,85,30.19,10.0,ENE,3.5,-,N/A,,Scattered Clouds,60,2013-08-21 10:51:00
7:51 AM,79.0,70.0,74,30.21,10.0,East,3.5,-,N/A,,Clear,100,2013-08-21 11:51:00
8:51 AM,82.0,68.0,62,30.22,10.0,East,4.6,-,N/A,,Clear,90,2013-08-21 12:51:00
9:51 AM,86.0,66.9,53,30.23,10.0,ENE,4.6,-,N/A,,Clear,60,2013-08-21 13:51:00
10:51 AM,86.0,70.0,59,30.23,10.0,ESE,9.2,-,N/A,,Clear,120,2013-08-21 14:51:00
11:51 AM,88.0,69.1,53,30.23,10.0,SE,10.4,-,N/A,,Clear,130,2013-08-21 15:51:00
12:51 PM,88.0,71.1,57,30.22,10.0,SE,10.4,-,N/A,,Clear,130,2013-08-21 16:51:00
1:51 PM,88.0,69.1,53,30.21,10.0,SE,10.4,-,N/A,,Clear,130,2013-08-21 17:51:00
2:51 PM,88.0,71.1,57,30.19,10.0,ESE,10.4,-,N/A,,Clear,120,2013-08-21 18:51:00
3:51 PM,88.0,71.1,57,30.17,10.0,ESE,10.4,-,N/A,,Clear,120,2013-08-21 19:51:00
4:51 PM,87.1,70.0,57,30.16,10.0,SE,9.2,-,N/A,,Clear,130,2013-08-21 20:51:00
5:51 PM,84.9,70.0,61,30.15,10.0,ESE,6.9,-,N/A,,Clear,120,2013-08-21 21:51:00
6:51 PM,84.0,72.0,67,30.14,10.0,ESE,5.8,-,N/A,,Clear,110,2013-08-21 22:51:00
7:51 PM,80.1,72.0,76,30.14,10.0,East,4.6,-,N/A,,Clear,100,2013-08-21 23:51:00
8:51 PM,79.0,73.0,82,30.15,10.0,East,4.6,-,N/A,,Clear,90,2013-08-22 00:51:00
9:51 PM,79.0,73.0,82,30.17,10.0,East,3.5,-,N/A,,Clear,100,2013-08-22 01:51:00
10:51 PM,80.1,75.0,85,30.16,10.0,SSE,3.5,-,N/A,,Clear,150,2013-08-22 02:51:00
11:51 PM,81.0,75.0,82,30.15,10.0,Calm,Calm,-,N/A,,Clear,0,2013-08-22 03:51:00